Location: Cheb
(50.0670°N, 12.3670°E)
Time: 18:43:50
(UTC+02:00)

ISS - Pass Details

Date: 02 April 2019
Orbit: 408 x 410 km, 51.6° (Epoch: 20 April)

Event Time Altitude Azimuth Distance (km) Brightness Sun altitude
Rises 20:55:50 0° 286° (WNW) 2,340 2.1 -12.0°
Reaches altitude 10° 20:57:56 10° 285° (WNW) 1,477 0.5 -12.3°
Maximum altitude 21:01:14 82° 200° (SSW) 418 -3.8 -12.8°
Enters shadow 21:03:03 25° 112° (ESE) 878 -2.8 -13.0°
